This is the latest recevied weather packets stored in our database for station/object KJ5IIV. If no packets are shown the sender has not sent any weather packets the latest 10 day(s).
| Time | Temp. | Humidity | Pressure | Rain* | Wind** | Luminosity | Snow |
|---|---|---|---|---|---|---|---|
| 1777910052 | 23.33° C | 52% | 1014.4 hPa | 0 mm | - | 784 W/m² | - |
| 1777909749 | 22.78° C | 52% | 1014.5 hPa | 0 mm | - | 755 W/m² | - |
| 1777909446 | 23.33° C | 51% | 1014.6 hPa | 0 mm | - | 766 W/m² | - |
| 1777909144 | 22.78° C | 51% | 1014.7 hPa | 0 mm | - | 770 W/m² | - |
| 1777908842 | 22.78° C | 51% | 1014.7 hPa | 0 mm | - | 762 W/m² | - |
| 1777908538 | 22.78° C | 54% | 1014.6 hPa | 0 mm | - | 683 W/m² | - |
| 1777908235 | 22.78° C | 53% | 1014.7 hPa | 0 mm | - | 705 W/m² | - |
| 1777907932 | 22.22° C | 53% | 1014.5 hPa | 0 mm | - | 702 W/m² | - |
| 1777907627 | 21.67° C | 53% | 1014.6 hPa | 0 mm | - | 599 W/m² | - |
| 1777907323 | 21.67° C | 55% | 1014.6 hPa | 0 mm | - | 591 W/m² | - |
| 1777907019 | 21.67° C | 56% | 1014.9 hPa | 0 mm | - | 589 W/m² | - |
| 1777906717 | 21.67° C | 56% | 1014.7 hPa | 0 mm | - | 580 W/m² | - |
| 1777906413 | 21.11° C | 56% | 1014.5 hPa | 0 mm | - | 569 W/m² | - |
| 1777906110 | 21.11° C | 57% | 1014.7 hPa | 0 mm | - | 545 W/m² | - |
| 1777905806 | 21.67° C | 57% | 1014.9 hPa | 0 mm | - | 550 W/m² | - |
| 1777905504 | 21.67° C | 57% | 1014.5 hPa | 0 mm | - | 533 W/m² | - |
| 1777905201 | 21.67° C | 59% | 1014.8 hPa | 0 mm | - | 517 W/m² | - |
| 1777904898 | 21.11° C | 61% | 1014.9 hPa | 0 mm | - | 492 W/m² | - |
| 1777904595 | 20.56° C | 62% | 1014.8 hPa | 0 mm | - | 472 W/m² | - |
| 1777904292 | 20.56° C | 61% | 1015 hPa | 0 mm | - | 422 W/m² | - |
| 1777903989 | 20.56° C | 61% | 1015 hPa | 0 mm | - | 426 W/m² | - |
| 1777903686 | 20.56° C | 62% | 1015 hPa | 0 mm | - | 411 W/m² | - |
| 1777903382 | 20° C | 65% | 1014.7 hPa | 0 mm | - | 388 W/m² | - |
| 1777903078 | 20° C | 66% | 1015.1 hPa | 0 mm | - | 334 W/m² | - |
| 1777902775 | 19.44° C | 64% | 1015 hPa | 0 mm | - | 266 W/m² | - |
* Rain latest hour (hover to see other rain measurements)
** Current wind speed in m/s (hover to see current wind gust speed)